Flag for Australia Weather past 2 weeks in Uluru, Northern Territory, Australia

Now
82 °F

Clear.


Feels Like: 80 °F
Forecast: 72 / 94 °F
Wind: 12 mph from Southeast

Location: Ayers Rock

Current Time: Feb 2, 2015 at 3:12:26 AM

Latest Report: Feb 2, 2015 at 2:30 AM


Visibility: N/A

Pressure: 29.95 "Hg

Humidity: 20%

Dew point: 37 °F

Location of UluruLocation

Historic Weather in Uluru — Graph

°F

Uluru temperature yesterday

Maximum temperature yesterday: 104 °F (at 4:30 PM)
Minimum temperature yesterday: 75 °F (at 3:30 AM)
Average temperature yesterday: 91 °F

Past Weeks' High & Low Weather Summary

 TemperatureHumidityPressure
High109 °F (Jan 20, 1:30 PM)61% (Jan 27, 12:30 AM)29.98 "Hg (Jan 27, 12:30 AM)
Low59 °F (Jan 30, 5:30 AM)7% (Jan 20, 2:30 PM)29.68 "Hg (Jan 23, 5:30 PM)
Average88 °F22%29.85 "Hg
* Reported Jan 18 1:30 AM — Feb 2 1:30 AM, Uluru, Weather by CustomWeather, © 2014

Note: Actual official high and low records may vary slightly from our data, if they occured in-between our weather recording intervals... More about our weather records

Advertising

Uluru weather history for previous 24 hours

 ConditionsComfort  
Time TempWeatherWind HumidityBarometerVisibility
1:30 AM
Feb 2
84 °FClear.9 mph19%29.95 "HgN/A
12:30 AM88 °FClear.13 mph17%29.92 "HgN/A
11:30 PM
Feb 1
91 °FClear.16 mph15%29.92 "HgN/A
10:30 PM91 °FClear.14 mph14%29.89 "HgN/A
9:30 PM93 °FClear.14 mph13%29.89 "HgN/A
8:30 PM97 °FClear.12 mph11%29.86 "HgN/A
7:30 PM99 °FClear.15 mph10%29.83 "HgN/A
6:30 PM100 °FSunny.6 mph10%29.83 "HgN/A
5:30 PM102 °FSunny.6 mph10%29.80 "HgN/A
4:30 PM104 °FSunny.8 mph9%29.83 "HgN/A
3:30 PM102 °FSunny.3 mph9%29.83 "HgN/A
2:30 PM100 °FSunny.7 mph10%29.83 "HgN/A
1:30 PM100 °FSunny.5 mph10%29.86 "HgN/A
12:30 PM100 °FSunny.10 mph10%29.86 "HgN/A
11:30 AM97 °FSunny.6 mph12%29.89 "HgN/A
10:30 AM95 °FSunny.9 mph12%29.92 "HgN/A
9:30 AM91 °FSunny.6 mph15%29.92 "HgN/A
8:30 AM88 °FSunny.8 mph17%29.92 "HgN/A
7:30 AM81 °FSunny.8 mph21%29.89 "HgN/A
6:30 AM75 °FSunny.7 mph27%29.86 "HgN/A
5:30 AM77 °FClear.7 mph24%29.86 "HgN/A
4:30 AM79 °FClear.8 mph23%29.83 "HgN/A
3:30 AM75 °FClear.7 mph25%29.83 "HgN/A
Weather by CustomWeather, © 2014

See weather overviewHow to use our weather pages